Terminal Aerodrome Forecast
Issued by NWS Raleigh/Durham, NC

Home | Current Version | Previous Version | Text Only | Print | Product List | Glossary On
Versions: 1 2 3 4 5 6 7 8 9 10 11 12 13 14 15 16 17 18 19 20 21 22 23 24 25 26 27 28 29 30 31 32 33 34 35 36 37 38 39 40 41 42 43 44 45 46
000
FTUS42 KRAH 271126
TAFGSO
TAF
KGSO 271126Z 2712/2812 27004KT 5SM BR BKN003 OVC060
      TEMPO 2712/2714 P6SM -RA SCT003 BKN016
     FM271400 33009KT P6SM SCT030 BKN045
      TEMPO 2716/2720 32010G20KT
     FM272200 31008KT P6SM SKC=

USA.gov is the U.S. government's official web portal to all federal, state and local government web resources and services.